Presure
207 154 195 152 158 205 191 214 217 213 210 209 211 219 223 222 227 218 214 215 216 215 222 223 219 222 219 216 221 216 216 213 222 225 167 200 198 198 200 204 212 198 167 184 180
192 199 206 200 193 210 213 206 218 205 221 215 213 221 217 224 217 212 220 220 222 216 227 222 215 213 212 211 215 215 220 214 214 214 220 219 202 197 202 174 203 207 197 188 188
201 155 160 189 170 152 213 213 213 216 220 208 221 143 138 223 220 214 212 216 209 208 212 206 213 212 209 215 236 212 210 212 220 215 223 210 219 220 209 196 158 210 202 206 183
195 189 170 215 206 208 206 214 209 218 209 220 216 226 145 210 167 201 210 209 214 213 212 211 215 205 212 199 206 218 229 220 228 215 143 219 224 209 216 222 214 195 67 211 198
213 214 193 180 209 217 216 205 211 212 208 214 207 211 181 204 202 198 175 213 199 211 211 218 218 216 219 217 219 207 207 217 224 229 224 218 215 220 216 213 214 220 207 145 203
199 199 206 216 209 211 213 205 210 212 210 216 205 214 209 212 209 207 206 205 207 203 214 208 211 223 216 218 217 230 230 214 222 233 228 224 220 221 215 221 218 209 214 222 194
200 217 209 207 215 217 207 204 212 216 210 205 213 211 209 214 212 211 211 212 207 214 214 216 215 223 225 227 240 246 227 235 217 219 225 228 229 220 223 221 217 219 211 215 226
217 214 215 216 219 209 205 210 210 211 215 208 203 212 210 199 206 206 213 214 211 213 219 217 218 221 224 226 234 241 236 232 224 222 227 218 224 235 218 227 224 221 220 211 217
211 206 206 208 208 216 205 215 212 216 214 210 204 208 209 204 203 211 208 207 216 221 210 217 222 223 226 229 241 246 239 232 237 225 222 231 230 221 227 230 225 233 228 219 206
208 205 213 217 212 216 212 215 206 216 216 215 205 208 213 212 210 207 215 213 214 216 216 226 236 240 239 227 240 244 245 250 237 241 242 237 230 236 237 238 234 225 236 228 215
210 204 209 206 212 211 216 206 215 204 214 209 210 211 201 216 215 206 207 220 223 226 231 233 228 228 234 242 247 249 277 277 280 270 276 274 283 292 299 281 243 239 224 239 225
213 216 218 216 222 218 213 213 222 217 214 212 214 206 214 218 219 215 216 225 242 251 253 249 267 271 281 275 276 267 266 261 258 248 257 251 256 249 284 285 271 242 237 230 251
226 227 213 222 211 216 213 216 211 218 215 211 211 217 210 214 217 229 261 276 281 280 273 269 260 248 245 250 253 255 254 254 245 237 239 250 242 235 247 276 279 274 245 241 219
208 220 215 219 214 214 205 210 214 212 207 216 214 214 213 217 277 289 274 259 246 248 251 256 254 251 250 253 248 247 250 245 238 233 230 234 246 227 228 251 266 228 243 251 255
214 221 209 210 219 206 209 202 200 214 207 202 224 220 266 282 270 266 287 332 509 505 533 527 509 331 317 298 279 270 244 237 235 236 234 234 246 225 224 221 248 76 287 286 290
222 213 217 222 213 207 216 204 207 213 208 222 236 279 266 265 299 480 513 502 517 529 517 521 563 583 558 589 430 289 285 275 254 244 249 238 250 233 218 222 219 242 261 284 284
215 222 216 199 214 206 201 202 217 219 225 261 264 261 276 385 462 603 561 544 532 496 486 490 474 481 522 548 167 518 411 325 289 273 273 184 175 242 214 214 222 221 243 257 282
212 213 216 201 217 220 214 224 217 222 255 248 263 283 397 422 440 480 439 425 425 415 424 431 419 413 435 462 518 543 503 324 381 306 290 273 253 244 239 223 220 227 229 249 270
205 214 220 224 209 216 226 216 214 258 242 262 336 387 394 363 412 429 418 409 390 401 382 374 366 382 405 415 421 461 526 515 465 389 344 304 286 84 258 241 237 241 237 146 248
211 202 205 209 226 225 225 216 250 245 260 347 399 369 347 360 395 402 391 384 377 354 347 352 351 354 385 410 411 417 467 489 450 395 250 352 323 302 180 223 176 239 242 242 241
214 211 219 233 227 224 222 242 242 249 297 398 370 349 335 341 347 363 364 351 342 336 344 331 324 329 347 392 459 455 478 509 431 400 372 376 356 339 199 153 202 242 244 248 237
217 208 205 223 224 224 231 232 237 264 440 376 360 342 351 339 332 328 336 341 335 329 326 321 330 319 321 327 381 406 401 489 434 420 378 381 380 359 84 197 254 255 253 249 248
207 212 201 225 221 220 241 228 227 339 412 367 351 326 303 329 330 317 307 303 309 315 321 334 325 327 311 313 363 367 378 378 392 376 375 377 397 389 403 374 356 337 141 253 253
220 231 229 218 222 230 231 232 234 364 397 357 328 319 298 315 287 305 297 295 294 294 299 304 315 327 323 318 332 336 339 341 339 340 336 336 346 358 379 305 409 268 427 265 257
208 216 226 203 221 243 228 228 270 374 400 354 322 306 295 284 284 309 295 294 297 296 295 306 306 298 299 293 297 294 307 316 328 336 333 342 346 349 339 347 377 400 412 319 271
207 212 220 215 224 223 229 238 292 370 397 354 323 301 292 286 292 300 316 296 286 310 309 289 268 271 268 272 272 278 289 302 308 314 313 310 315 326 322 343 345 350 345 367 369
216 224 213 216 233 215 222 229 295 367 394 357 327 301 297 286 291 309 301 313 296 286 281 273 267 270 273 274 273 287 296 295 306 309 319 311 321 343 320 346 350 343 343 337 340
Wind_Speed
34 43 38 45 40 32 36 30 31 30 30 31 32 32 30 28 26 30 32 32 34 34 34 37 40 42 44 47 49 51 55 60 63 67 56 72 73 72 73 71 71 75 62 75 70
38 35 36 36 37 31 31 32 32 33 33 34 35 35 32 27 26 30 29 31 31 34 30 35 40 42 45 47 50 51 52 60 66 66 64 70 77 74 75 59 74 73 76 74 73
42 42 41 43 40 43 33 33 34 34 34 35 35 37 38 27 26 31 33 33 37 39 40 44 45 47 48 47 44 52 56 60 64 65 66 70 69 70 80 78 59 73 76 73 75
42 42 43 36 39 36 34 33 34 35 35 35 33 30 38 30 37 38 36 38 39 42 45 46 47 53 52 55 54 49 52 60 61 65 47 68 72 72 72 73 79 78 15 73 73
39 37 36 40 39 38 35 34 35 35 36 35 35 34 35 38 39 39 43 43 46 48 49 49 51 51 52 53 54 57 59 58 59 62 67 70 74 71 74 76 74 74 80 56 73
44 41 39 38 39 37 35 38 39 38 38 37 39 36 39 36 42 46 48 50 53 54 54 55 55 55 57 56 59 53 57 64 62 61 66 70 75 72 76 77 76 75 77 71 78
47 41 40 39 37 37 37 39 40 38 40 41 42 43 43 42 45 50 54 56 57 58 59 59 58 59 58 59 56 55 60 61 68 69 68 69 72 73 80 78 77 74 75 74 68
41 43 41 41 39 39 40 41 40 41 42 43 46 47 46 51 54 56 59 61 63 66 69 66 64 66 62 62 63 63 62 65 69 74 74 78 73 74 82 82 81 76 73 75 70
42 41 40 42 40 42 43 44 42 44 45 46 49 53 53 56 60 63 65 68 73 75 69 72 73 71 70 70 71 69 67 68 71 78 79 79 77 82 82 86 82 79 76 74 76
43 42 42 42 43 45 45 44 44 48 49 51 53 58 61 61 63 68 72 74 76 76 76 83 84 82 81 76 76 75 74 74 75 75 78 80 81 82 84 85 87 80 77 76 75
44 40 44 44 47 46 48 48 50 49 53 55 58 62 63 69 70 69 73 83 84 88 91 89 86 83 85 86 84 80 74 70 72 72 73 71 69 67 70 76 84 86 80 77 77
45 46 48 49 49 48 47 51 53 54 54 61 65 67 71 76 78 78 82 89 93 93 92 93 91 90 86 84 79 75 71 66 65 66 65 67 63 66 62 69 76 86 87 81 78
43 43 41 44 47 47 50 52 54 58 61 63 66 73 73 80 82 88 90 93 92 91 90 87 84 88 86 83 79 75 73 72 71 70 67 66 63 67 64 62 69 77 88 86 77
42 43 42 44 45 49 49 54 58 62 63 69 73 76 78 83 92 91 87 84 87 91 94 93 94 94 93 90 86 82 81 80 77 74 71 71 64 69 67 62 67 58 63 87 85
39 41 42 43 47 47 52 54 58 66 71 71 80 84 93 93 89 87 94 95 56 56 49 52 64 100 101 95 97 91 90 87 86 83 81 76 68 68 71 70 66 11 73 76 78
37 38 42 45 46 49 54 58 64 69 73 82 87 93 88 90 99 55 48 49 44 34 31 31 20 25 36 33 90 92 99 98 96 91 92 78 79 71 75 75 75 73 71 72 75
37 39 40 41 47 50 54 60 67 71 76 88 86 87 90 71 51 31 25 22 16 11 10 13 16 9 8 16 29 59 92 102 99 99 94 64 59 72 80 82 80 76 76 71 72
33 38 42 46 53 56 59 63 67 73 84 80 86 96 52 43 53 30 29 24 23 21 22 23 21 16 10 6 16 36 55 60 94 100 95 91 85 79 86 88 85 81 75 74 69
35 39 45 48 51 56 60 63 68 81 74 84 69 43 37 52 52 29 26 29 27 27 28 32 27 37 22 11 8 15 41 49 69 88 99 99 91 26 90 88 86 84 81 44 74
37 39 44 49 55 58 62 64 81 76 81 64 34 37 43 44 44 32 37 37 39 37 28 41 47 50 39 14 12 11 17 44 51 68 43 94 98 95 54 77 50 88 86 82 78
38 42 46 52 55 59 62 77 75 73 85 32 32 36 40 36 50 46 40 38 34 30 41 30 24 36 49 42 7 2 15 34 44 57 68 77 87 91 65 47 66 91 89 86 78
41 42 46 55 59 62 72 72 72 80 26 32 28 30 29 30 39 46 48 39 35 32 34 31 39 41 41 41 36 33 31 20 37 48 54 50 56 77 40 52 74 93 92 89 85
42 46 45 57 60 63 75 71 69 68 27 28 25 28 35 31 31 36 39 39 44 46 40 37 40 42 40 38 38 41 39 24 20 18 23 16 15 22 38 71 86 90 42 89 89
47 51 54 55 61 69 69 72 71 58 25 26 28 27 30 28 30 28 29 29 34 35 39 39 41 40 45 43 40 37 36 35 29 27 23 18 23 24 22 22 29 29 52 90 89
45 51 53 53 61 73 69 71 80 53 23 23 26 25 26 25 26 24 21 23 29 32 35 37 49 57 59 53 51 42 37 30 19 15 12 8 11 14 13 5 10 16 20 22 85
47 49 53 57 65 63 70 78 76 52 22 19 20 20 22 22 21 21 24 20 27 31 36 56 34 42 38 42 37 35 33 29 25 24 26 26 20 16 12 11 14 21 22 21 28
51 51 51 56 65 59 66 77 76 51 20 18 15 17 19 20 21 17 20 23 28 39 44 42 36 43 43 41 35 38 32 31 27 25 25 21 20 7 17 14 14 15 21 27 28
Wind_Direction
272 273 279 276 284 287 283 292 292 290 284 283 285 284 280 280 274 270 269 266 263 261 263 260 256 255 254 251 248 245 242 243 243 244 242 239 240 240 241 241 240 236 235 237 236
272 281 282 285 284 287 290 288 297 288 290 289 290 288 284 279 272 269 268 265 263 265 262 259 256 253 253 252 251 249 243 243 245 243 243 242 239 239 237 236 239 237 234 235 235
279 272 280 287 270 277 292 295 297 297 294 291 287 276 275 280 276 270 269 268 262 259 261 258 255 254 252 251 254 247 246 246 246 243 242 242 239 239 238 238 237 235 234 230 234
276 281 275 280 284 289 292 294 293 295 290 290 289 286 278 280 276 274 275 271 266 263 259 257 257 254 254 254 253 248 247 246 247 246 252 242 241 238 236 237 236 238 253 232 226
281 279 274 273 284 286 290 288 294 293 291 289 289 288 282 279 278 278 273 273 268 265 263 264 262 256 253 253 254 251 249 248 247 247 245 243 242 239 239 236 234 233 235 239 228
281 276 280 283 285 290 292 287 292 293 293 291 287 286 286 285 281 278 275 273 272 272 270 266 264 268 258 256 254 255 251 251 249 245 246 244 244 242 240 239 233 232 234 232 230
277 278 282 286 287 292 288 288 293 291 287 287 290 287 286 288 282 279 279 278 275 277 274 273 270 275 273 270 272 263 252 249 248 247 244 243 244 241 243 240 238 231 230 232 229
276 280 285 290 287 288 286 291 291 290 289 287 286 288 289 283 282 281 283 283 281 282 283 278 276 276 273 271 271 265 255 251 248 247 246 245 242 241 240 241 238 234 228 228 228
279 283 289 288 290 292 288 293 295 292 289 288 288 290 290 286 287 288 286 285 285 283 280 281 279 277 274 273 271 267 259 252 249 246 247 246 242 242 241 241 238 235 230 225 226
283 285 291 290 292 292 293 293 293 294 292 291 289 290 291 289 288 288 287 285 285 284 283 281 278 276 274 272 271 265 260 256 250 249 248 245 245 243 243 240 241 237 233 227 222
283 290 293 292 293 293 293 295 296 295 295 293 292 291 291 293 290 289 290 286 285 284 282 279 278 277 274 271 269 268 262 256 254 252 250 249 246 243 239 240 239 239 236 229 224
285 287 289 289 289 294 295 298 296 295 296 296 296 295 294 291 291 292 290 287 282 279 277 276 276 272 268 265 262 260 256 250 245 246 244 241 238 239 238 234 237 235 236 232 225
282 284 291 290 294 296 298 300 301 301 298 295 296 293 294 293 293 289 288 287 284 280 277 273 270 269 268 265 261 256 254 247 244 244 245 239 232 236 237 233 233 234 233 233 225
287 290 292 294 297 299 301 303 303 301 299 298 295 295 296 297 297 293 289 285 282 279 276 273 269 267 265 263 261 257 251 249 247 245 244 241 228 234 237 236 233 233 231 232 228
291 290 296 298 300 299 301 303 302 303 302 301 297 298 306 300 296 293 292 289 287 281 279 269 259 262 258 257 253 250 248 248 246 244 242 242 232 233 234 236 234 254 229 229 226
290 298 297 299 298 304 303 303 304 301 301 300 305 308 304 303 304 313 308 299 300 301 296 293 303 280 264 248 244 245 244 240 242 243 241 240 237 225 234 234 235 232 232 227 226
298 296 298 305 303 305 303 303 304 303 304 317 310 307 310 315 337 349 348 346 356 27 20 12 26 7 299 250 253 231 238 238 239 239 239 235 236 224 233 236 233 234 232 230 225
301 305 303 307 309 308 307 310 308 310 321 316 315 316 328 346 351 40 46 39 56 51 53 54 41 22 14 336 238 225 227 235 233 239 239 234 232 227 226 232 235 233 233 232 227
309 311 313 312 309 312 315 311 311 324 323 320 323 334 4 335 5 22 39 49 46 55 62 56 45 35 14 348 269 252 224 219 230 228 233 234 233 248 225 226 230 231 231 231 230
312 311 312 314 318 320 321 314 328 330 326 326 342 337 338 3 18 36 54 57 70 75 68 62 56 43 32 9 308 256 222 202 210 223 222 230 230 230 222 223 227 229 230 231 231
313 317 320 324 327 326 325 330 333 333 330 343 345 346 349 0 34 44 58 71 78 71 71 64 56 55 44 39 46 258 223 188 192 204 225 230 229 228 233 230 225 224 228 230 230
321 322 321 332 331 331 333 335 337 336 356 345 354 356 9 17 43 44 50 53 52 56 67 66 66 68 56 47 51 83 90 131 172 199 220 230 233 231 241 231 229 219 223 226 229
324 324 322 335 334 333 336 336 337 343 357 354 359 0 0 18 49 61 62 60 61 58 56 52 73 71 66 56 67 78 82 93 114 151 189 211 186 224 239 234 232 232 221 223 226
328 334 333 334 336 338 339 341 342 349 0 358 358 1 8 15 9 54 59 62 66 63 61 57 59 61 74 64 65 70 87 97 106 120 139 172 199 215 222 237 236 246 235 219 223
334 336 335 331 339 339 342 342 345 353 5 1 2 5 7 6 11 45 42 56 67 69 67 70 72 69 67 68 65 63 63 70 84 115 129 123 119 125 131 173 203 191 183 215 218
334 335 338 338 343 345 347 352 351 356 3 5 6 3 7 5 14 31 51 52 53 78 77 88 88 84 85 80 79 79 74 73 78 91 100 99 79 87 89 125 149 152 180 165 193
331 335 338 341 343 346 350 353 357 2 6 14 11 7 9 7 16 26 44 61 79 95 100 100 99 91 86 84 82 67 72 78 81 84 102 94 101 135 133 120 142 163 175 173 179